• In Germany
  • List of Countries
  • For 7 days
  • Water Temperature
  • Satellite Maps
  • Weather Map
  • Weather Widgets
  • user-avatar
    Login

    Hourly Weather Bucaramanga

    Today, 18 January, Thursday

    Time Temperature Precipitation Wind Pressure Humidity
    00:00 +21°C° 0.5 mm 1 mps 673 mmHg 86%
    01:00 +20°C° 0.5 mm 1 mps 673 mmHg 85%
    02:00 +20°C° 0.6 mm 1 mps 672 mmHg 85%
    03:00 +20°C° 0.6 mm 1 mps 672 mmHg 85%
    04:00 +20°C° 0.6 mm 1 mps 672 mmHg 85%
    05:00 +20°C° 0.4 mm 1 mps 672 mmHg 85%
    06:00 +20°C° 0.4 mm 1 mps 673 mmHg 86%
    07:00 +21°C° 0.4 mm 1 mps 673 mmHg 86%
    08:00 +21°C° 1.4 mm 1 mps 673 mmHg 86%
    09:00 +22°C° 1.4 mm 1 mps 674 mmHg 85%
    10:00 +21°C° 1.4 mm 0 mps 674 mmHg 84%
    11:00 +23°C° 1.7 mm 1 mps 674 mmHg 85%
    12:00 +23°C° 1.7 mm 1 mps 673 mmHg 85%
    13:00 +23°C° 1.7 mm 1 mps 673 mmHg 86%
    14:00 +23°C° 0.9 mm 1 mps 672 mmHg 86%
    15:00 +23°C° 0.9 mm 1 mps 672 mmHg 87%
    16:00 +23°C° 0.9 mm 1 mps 671 mmHg 87%
    17:00 +22°C° 0.3 mm 1 mps 672 mmHg 88%
    18:00 +22°C° 0.3 mm 1 mps 672 mmHg 89%
    19:00 +21°C° 0.3 mm 1 mps 672 mmHg 91%
    20:00 +21°C° 0.1 mm 1 mps 672 mmHg 90%
    21:00 +21°C° 0.1 mm 1 mps 673 mmHg 90%
    22:00 +20°C° 0.1 mm 1 mps 673 mmHg 89%
    23:00 +20°C° 0.3 mm 1 mps 673 mmHg 90%

    Tomorrow, 19 January, Friday

    Time Temperature Precipitation Wind Pressure Humidity
    00:00 +20°C° 0.3 mm 1 mps 673 mmHg 90%
    01:00 +20°C° 0.3 mm 1 mps 673 mmHg 90%
    02:00 +20°C° 0.3 mm 1 mps 672 mmHg 91%
    03:00 +20°C° 0.3 mm 1 mps 672 mmHg 91%
    04:00 +20°C° 0.3 mm 1 mps 672 mmHg 92%
    05:00 +20°C° 0.2 mm 1 mps 672 mmHg 91%
    06:00 +20°C° 0.2 mm 1 mps 673 mmHg 90%
    07:00 +20°C° 0.2 mm 1 mps 673 mmHg 89%
    08:00 +22°C° 0 mm 1 mps 674 mmHg 82%
    09:00 +24°C° 0 mm 1 mps 674 mmHg 75%
    10:00 +26°C° 0 mm 1 mps 675 mmHg 68%
    11:00 +27°C° 0.1 mm 1 mps 674 mmHg 65%
    12:00 +27°C° 0.1 mm 1 mps 674 mmHg 62%
    13:00 +28°C° 0.1 mm 1 mps 673 mmHg 60%
    14:00 +28°C° 0.3 mm 1 mps 672 mmHg 62%
    15:00 +27°C° 0.3 mm 1 mps 672 mmHg 64%
    16:00 +27°C° 0.3 mm 1 mps 671 mmHg 66%
    17:00 +25°C° 0.2 mm 1 mps 671 mmHg 70%
    18:00 +24°C° 0.2 mm 1 mps 671 mmHg 75%
    19:00 +22°C° 0.2 mm 1 mps 671 mmHg 79%
    20:00 +22°C° 0.1 mm 1 mps 672 mmHg 77%
    21:00 +22°C° 0.1 mm 1 mps 672 mmHg 75%
    22:00 +21°C° 0.1 mm 1 mps 673 mmHg 73%
    23:00 +21°C° 0 mm 1 mps 673 mmHg 72%

    Day after tomorrow, 20 January, Saturday

    Time Temperature Precipitation Wind Pressure Humidity
    00:00 +21°C° 0 mm 1 mps 672 mmHg 72%
    01:00 +21°C° 0 mm 1 mps 672 mmHg 72%
    02:00 +20°C° 0.1 mm 1 mps 672 mmHg 71%
    03:00 +20°C° 0.1 mm 1 mps 672 mmHg 71%
    04:00 +20°C° 0.1 mm 1 mps 671 mmHg 71%
    05:00 +20°C° 0 mm 1 mps 672 mmHg 70%
    06:00 +20°C° 0 mm 1 mps 672 mmHg 70%
    07:00 +21°C° 0 mm 1 mps 673 mmHg 70%
    08:00 +23°C° 0 mm 1 mps 673 mmHg 65%
    09:00 +25°C° 0 mm 1 mps 674 mmHg 61%
    10:00 +27°C° 0 mm 1 mps 675 mmHg 56%
    11:00 +28°C° 0 mm 1 mps 674 mmHg 54%
    12:00 +29°C° 0 mm 1 mps 673 mmHg 53%
    13:00 +30°C° 0 mm 2 mps 673 mmHg 51%
    14:00 +29°C° 0.1 mm 2 mps 672 mmHg 53%
    15:00 +29°C° 0.1 mm 1 mps 671 mmHg 55%
    16:00 +28°C° 0.1 mm 1 mps 671 mmHg 58%
    17:00 +26°C° 0.2 mm 1 mps 671 mmHg 64%
    18:00 +25°C° 0.2 mm 1 mps 671 mmHg 70%
    19:00 +23°C° 0.2 mm 1 mps 671 mmHg 76%
    20:00 +23°C° 0.1 mm 1 mps 672 mmHg 74%
    21:00 +22°C° 0.1 mm 1 mps 672 mmHg 71%
    22:00 +22°C° 0.1 mm 1 mps 673 mmHg 69%
    23:00 +22°C° 0.1 mm 1 mps 672 mmHg 68%

    21 January, Sunday

    Time Temperature Precipitation Wind Pressure Humidity
    00:00 +21°C° 0.1 mm 1 mps 672 mmHg 67%
    01:00 +21°C° 0.1 mm 1 mps 671 mmHg 66%
    02:00 +21°C° 0 mm 1 mps 671 mmHg 67%
    03:00 +20°C° 0 mm 1 mps 671 mmHg 68%
    04:00 +20°C° 0 mm 1 mps 671 mmHg 69%
    05:00 +20°C° 0 mm 1 mps 671 mmHg 69%
    06:00 +20°C° 0 mm 1 mps 672 mmHg 69%
    07:00 +21°C° 0 mm 1 mps 672 mmHg 68%
    08:00 +23°C° 0 mm 1 mps 673 mmHg 63%
    09:00 +26°C° 0 mm 1 mps 674 mmHg 57%
    10:00 +28°C° 0 mm 1 mps 674 mmHg 51%
    11:00 +29°C° 0 mm 1 mps 674 mmHg 50%
    12:00 +30°C° 0 mm 2 mps 673 mmHg 49%
    13:00 +30°C° 0 mm 2 mps 672 mmHg 48%
    14:00 +30°C° 0.1 mm 2 mps 671 mmHg 51%
    15:00 +29°C° 0.1 mm 1 mps 670 mmHg 53%
    16:00 +29°C° 0.1 mm 1 mps 670 mmHg 56%
    17:00 +27°C° 0.3 mm 1 mps 670 mmHg 63%
    18:00 +25°C° 0.3 mm 1 mps 670 mmHg 70%
    19:00 +23°C° 0.3 mm 1 mps 670 mmHg 77%
    20:00 +22°C° 0.1 mm 1 mps 671 mmHg 76%
    21:00 +22°C° 0.1 mm 1 mps 671 mmHg 74%
    22:00 +22°C° 0.1 mm 1 mps 672 mmHg 73%
    23:00 +21°C° 0.1 mm 1 mps 671 mmHg 73%

    22 January, Monday

    Time Temperature Precipitation Wind Pressure Humidity
    00:00 +21°C° 0.1 mm 1 mps 671 mmHg 72%
    01:00 +21°C° 0.1 mm 1 mps 671 mmHg 71%
    02:00 +21°C° 0 mm 1 mps 671 mmHg 72%
    03:00 +20°C° 0 mm 1 mps 670 mmHg 72%
    04:00 +20°C° 0 mm 1 mps 670 mmHg 72%
    05:00 +20°C° 0 mm 1 mps 671 mmHg 71%
    06:00 +21°C° 0 mm 1 mps 671 mmHg 71%
    07:00 +21°C° 0 mm 1 mps 672 mmHg 70%
    08:00 +23°C° 0 mm 1 mps 672 mmHg 65%
    09:00 +26°C° 0 mm 1 mps 673 mmHg 59%
    10:00 +28°C° 0 mm 1 mps 674 mmHg 54%
    11:00 +29°C° 0 mm 1 mps 673 mmHg 53%
    12:00 +29°C° 0 mm 1 mps 672 mmHg 52%
    13:00 +30°C° 0 mm 1 mps 671 mmHg 51%
    14:00 +29°C° 0.1 mm 1 mps 671 mmHg 53%
    15:00 +29°C° 0.1 mm 1 mps 670 mmHg 55%
    16:00 +28°C° 0.1 mm 1 mps 669 mmHg 57%
    17:00 +27°C° 0.1 mm 1 mps 670 mmHg 64%
    18:00 +25°C° 0.1 mm 1 mps 670 mmHg 70%
    19:00 +23°C° 0.1 mm 1 mps 670 mmHg 76%
    20:00 +23°C° 0.2 mm 1 mps 671 mmHg 76%
    21:00 +23°C° 0.2 mm 1 mps 671 mmHg 76%
    22:00 +22°C° 0.2 mm 1 mps 672 mmHg 76%
    23:00 +22°C° 0.2 mm 1 mps 671 mmHg 76%

    23 January, Tuesday

    Time Temperature Precipitation Wind Pressure Humidity
    00:00 +22°C° 0.2 mm 1 mps 671 mmHg 76%
    01:00 +22°C° 0.2 mm 1 mps 671 mmHg 76%
    02:00 +22°C° 0.1 mm 1 mps 671 mmHg 77%
    03:00 +21°C° 0.1 mm 1 mps 670 mmHg 77%
    04:00 +21°C° 0.1 mm 1 mps 670 mmHg 77%
    05:00 +21°C° 0.1 mm 1 mps 671 mmHg 77%
    06:00 +21°C° 0.1 mm 1 mps 671 mmHg 77%
    07:00 +21°C° 0.1 mm 1 mps 672 mmHg 77%
    08:00 +23°C° 0 mm 1 mps 672 mmHg 71%
    09:00 +26°C° 0 mm 1 mps 673 mmHg 65%
    10:00 +28°C° 0 mm 1 mps 673 mmHg 59%
    11:00 +28°C° 0.1 mm 1 mps 673 mmHg 57%
    12:00 +29°C° 0.1 mm 2 mps 672 mmHg 56%
    13:00 +29°C° 0.1 mm 2 mps 671 mmHg 55%
    14:00 +29°C° 0.5 mm 2 mps 671 mmHg 59%
    15:00 +28°C° 0.5 mm 1 mps 670 mmHg 62%
    16:00 +27°C° 0.5 mm 1 mps 669 mmHg 65%
    17:00 +26°C° 0.3 mm 1 mps 670 mmHg 69%
    18:00 +25°C° 0.3 mm 1 mps 670 mmHg 74%
    19:00 +23°C° 0.3 mm 1 mps 670 mmHg 78%
    20:00 +23°C° 0.2 mm 1 mps 671 mmHg 78%
    21:00 +23°C° 0.2 mm 1 mps 671 mmHg 78%
    22:00 +22°C° 0.2 mm 1 mps 672 mmHg 78%
    23:00 +22°C° 0.2 mm 1 mps 671 mmHg 78%
    Show more